Weather History for Benton Harbor, MI

Change the Weather History Date:

Monday, May 20, 2013

  Actual Average Record
Temperature  
Mean Temperature 80 °F -  
Max Temperature 90 °F 70 °F 91 °F (1975)
Min Temperature 71 °F 47 °F 32 °F (2006)
Cooling Degree Days 15    
Growing Degree Days 30 (Base 50)    
Moisture  
Dew Point 63 °F    
Average Humidity 58    
Maximum Humidity 81    
Minimum Humidity 33    
Precipitation  
Precipitation 0.00 in - - ()
Sea Level Pressure  
Sea Level Pressure 29.79 in    
Wind  
Wind Speed 9 mph (South)    
Max Wind Speed 18 mph    
Max Gust Speed 28 mph    
Visibility 10 miles    
Events Rain    
Averages and records for this station are not official NWS values.
T = Trace of Precipitation, MM = Missing Value Source: NWS Daily Summary

Daily Weather History Graph

Daily Weather History Graph

Search for Another Location

Airport:

Trip Planner

Search our weather history database for the weather conditions in past years. The results will help you decide how hot, cold, wet, or windy it might be!

Date:

Astronomy

May. 20, 2013 Rise Set
Actual Time 6:20 AM EDT 9:05 PM EDT
Civil Twilight 5:47 AM EDT 9:37 PM EDT
Nautical Twilight 5:06 AM EDT 10:18 PM EDT
Astronomical Twilight 4:19 AM EDT 11:06 PM EDT
Moon 4:07 PM EDT (5/20) 3:20 AM EDT (5/20)
Length of Visible Light 15h 50m
Length of Day
14h 45m
Waxing Gibbous, 75% of the Moon is Illuminated
May 20
Waxing Gibbous
May 25
Full
May 31
Last Quarter
Jun 8
New
Jun 16
First Quarter

Hourly Weather History & Observations

Time (EDT) Temp. Heat Index Dew Point Humidity Pressure Visibility Wind Dir Wind Speed Gust Speed Precip Events Conditions
12:53 AM 71.1 °F - 62.1 °F 73% 29.83 in 10.0 mi SE 5.8 mph - N/A   Clear
1:53 AM 73.9 °F - 62.1 °F 66% 29.82 in 10.0 mi SSE 9.2 mph - N/A   Partly Cloudy
2:53 AM 73.0 °F - 63.0 °F 71% 29.81 in 10.0 mi SE 5.8 mph - N/A   Clear
3:53 AM 73.9 °F - 64.0 °F 71% 29.81 in 10.0 mi South 8.1 mph - N/A   Mostly Cloudy
4:53 AM 72.0 °F - 64.9 °F 78% 29.79 in 10.0 mi SE 6.9 mph - N/A   Clear
5:53 AM 72.0 °F - 64.9 °F 78% 29.79 in 8.0 mi SE 6.9 mph - N/A   Clear
7:53 AM 73.0 °F - 66.9 °F 81% 29.82 in 6.0 mi SSE 9.2 mph - N/A   Haze
8:53 AM 75.9 °F - 68.0 °F 76% 29.83 in 8.0 mi South 10.4 mph - N/A   Mostly Cloudy
9:19 AM 77.0 °F - 68.0 °F 74% 29.84 in 9.0 mi South 10.4 mph - N/A   Partly Cloudy
9:53 AM 78.1 °F - 68.0 °F 71% 29.82 in 9.0 mi SSW 9.2 mph 17.3 mph N/A   Partly Cloudy
10:53 AM 82.0 °F 84.5 °F 66.9 °F 60% 29.79 in 10.0 mi SSW 10.4 mph - N/A   Clear
11:53 AM 84.0 °F 86.5 °F 66.9 °F 56% 29.81 in 10.0 mi South 10.4 mph 18.4 mph N/A   Clear
12:53 PM 84.9 °F 87.1 °F 66.0 °F 53% 29.78 in 10.0 mi South 11.5 mph - 0.00 in Rain Light Rain
1:53 PM 82.9 °F 84.0 °F 63.0 °F 51% 29.79 in 10.0 mi SSW 11.5 mph 18.4 mph 0.00 in   Clear
2:53 PM 86.0 °F 87.3 °F 64.0 °F 48% 29.79 in 10.0 mi South 10.4 mph - N/A   Clear
3:32 PM 89.6 °F 88.9 °F 59.0 °F 36% 29.80 in 10.0 mi WSW 17.3 mph 25.3 mph N/A   Scattered Clouds
3:53 PM 89.1 °F 88.2 °F 59.0 °F 36% 29.77 in 10.0 mi SW 18.4 mph 25.3 mph N/A   Partly Cloudy
4:53 PM 89.1 °F 88.0 °F 57.9 °F 35% 29.75 in 10.0 mi WSW 18.4 mph 26.5 mph N/A   Clear
5:53 PM 87.1 °F 85.3 °F 55.0 °F 33% 29.77 in 10.0 mi SW 16.1 mph 27.6 mph N/A   Clear
6:53 PM 89.1 °F 87.7 °F 57.0 °F 34% 29.73 in 10.0 mi SSW 13.8 mph 21.9 mph N/A   Clear
7:53 PM 86.0 °F 86.3 °F 62.1 °F 44% 29.73 in 10.0 mi South 13.8 mph 21.9 mph N/A   Clear
8:53 PM 82.9 °F 84.0 °F 63.0 °F 51% 29.74 in 10.0 mi South 8.1 mph 17.3 mph N/A   Clear
9:53 PM 81.0 °F 82.5 °F 64.0 °F 56% 29.75 in 10.0 mi South 5.8 mph - N/A   Partly Cloudy
10:53 PM 80.1 °F 81.7 °F 64.0 °F 58% 29.75 in 10.0 mi South 11.5 mph - N/A   Partly Cloudy
11:53 PM 79.0 °F - 63.0 °F 58% 29.75 in 10.0 mi SSW 10.4 mph 19.6 mph N/A   Clear